www.pogodaiklimat.ru

Погода и климат >> Архив погоды >> Португалия >> Ангра-ду-Эроижму


ПОГОДА в Ангра-ду-Эроижму

  • Прогноз погоды в Ангра-ду-Эроижму
  • Монитор погоды в Ангра-ду-Эроижму

АРХИВ ПОГОДЫ в Ангра-ду-Эроижму

Время (UTC), дата Ветер
(напр.,м/с)
 
Видим.   Явления Облачность Т
(С)
Тd
(С)
f
(%)
Тe
(С)
Тes
(С)
Комфортность P
(гПа)
Po
(гПа)
Тmin
(С)
Tmax
(С)
R
(мм)
R24
(мм)
S
(см)
07 12.07 штиль 0 н/о н/о +18.9 +18 +18 1024.8 1014.1
08 12.07 штиль 0 н/о н/о +20.6 -26.1 3 +19 +19 1024.9 1014.3
09 12.07 штиль 0 2000 м 4/4 300 м
[Sc Ac lent]
+21.8 +19.8 88 +27 +31 душно 1025.5 1014.9
10 12.07 штиль 0 н/о н/о +22.4 +22.4 100 +30 +30 очень
душно
1025.5 1014.9
11 12.07 штиль 0 н/о н/о +23.3 +23.3 100 +33 +33 очень
душно
1025.7 1015.2
12 12.07 штиль 0 2000 м 5/5 600 м
[Cu med, cong Ac cast]
+23.3 +20.8 86 +31 +42 очень
душно
1025.7 1015.2
13 12.07 штиль 0 н/о н/о +21.8 +21.8 100 +28 +28 душно 1025.8 1015.2
14 12.07 ЮВ 2 н/о н/о +22.2 +22.2 100 +30 +30 очень
душно
1025.7 1015.2
15 12.07 нст 2
{5}
2000 м 5/0 300 м
[Ac cast]
+23.1 +19.9 82 1025.5 1014.9
16 12.07 н/о н/о +22.7 +22.7 100 1025.3 1014.7
18 12.07 ЮВ 3 н/о н/о +22.1 +22.1 100 +29 +29 очень
душно
1024.7 1014.1 +23.8
19 12.07 н/о н/о +22.0 +22.0 100 1024.6 1014.1
20 12.07 штиль 0 н/о н/о +21.8 -25.4 3 +19 +19 1024.9 1014.4
21 12.07 штиль 0 н/о н/о +21.0 -25.9 3 +19 +19 1025.1 1014.5
22 12.07 штиль 0 н/о н/о +20.8 +19 +19 1025.3 1014.7
23 12.07 штиль 0 н/о н/о +20.8 -26.0 3 +19 +19 1025.6 1015.0
00 13.07 штиль 0 н/о н/о +20.3 -26.4 3 +19 +19 1025.4 1014.8
01 13.07 штиль 0 н/о н/о +20.6 -26.2 3 +19 +19 1025.2 1014.6
02 13.07 штиль 0 н/о н/о +20.7 -26.1 3 +19 +19 1024.8 1014.2
03 13.07 штиль 0 н/о н/о +20.8 -26.0 3 +19 +19 1024.4 1013.8
04 13.07 штиль 0 н/о н/о +21.0 -25.9 3 +19 +19 1024.0 1013.4
05 13.07 штиль 0 н/о н/о +20.9 -24.5 3 +19 +19 1023.6 1013.0
06 13.07 штиль 0 н/о н/о +20.9 -25.9 3 +19 +19 1023.7 1013.2 +20.3
07 13.07 штиль 0 н/о н/о +21.0 -25.9 3 +19 +19 1024.0 1013.4
08 13.07 штиль 0 н/о н/о +21.2 +19 +19 1024.1 1013.5
09 13.07 нст 1 н/о н/о +21.5 1024.3 1013.7
10 13.07 н/о н/о +21.9 -25.2 3 1024.4 1013.8
11 13.07 штиль 0 н/о н/о +22.1 -25.1 3 +19 +19 1024.5 1013.9
12 13.07 штиль 0 н/о н/о +22.5 -24.9 3 +20 +20 1024.7 1014.2
13 13.07 н/о н/о +22.6 -24.8 3 1024.8 1014.3
14 13.07
{5}
н/о н/о +22.6 1024.6 1014.0
15 13.07 нст 2
{5}
н/о н/о +23.5 1024.3 1013.8
16 13.07 н/о н/о +23.0 1024.1 1013.6
17 13.07 н/о н/о +22.8 -24.7 3 1024.0 1013.5
18 13.07 С 2
{5}
н/о н/о +23.1 -24.4 3 +20 +20 1023.9 1013.4 +23.8
19 13.07 С 2
{5}
н/о н/о +22.5 +19 +19 1024.0 1013.5
20 13.07 ЮВ 3-5
{5}
н/о н/о +22.1 +19 +19 1023.9 1013.4
21 13.07 штиль 0
{6}
н/о н/о +21.7 +19 +19 1023.9 1013.4 0.1
22 13.07 штиль 0 н/о н/о +21.1 +19 +19 1024.1 1013.5
23 13.07 штиль 0 н/о н/о +20.9 +19 +19 1024.3 1013.7
00 14.07 штиль 0 н/о н/о +21.0 -25.9 3 +19 +19 1024.4 1013.8
01 14.07 н/о н/о +20.9 +20.9 100 1023.9 1013.3 0.1
02 14.07 штиль 0 н/о н/о +20.7 +20.0 96 +25 +25 комфорт 1024.0 1013.4
03 14.07 штиль 0 н/о н/о +20.3 +20.3 100 +24 +24 комфорт 1023.5 1012.9
04 14.07 штиль 0 н/о н/о +20.1 +20.1 100 +24 +24 комфорт 1023.2 1012.6
05 14.07 штиль 0 н/о н/о +20.2 +20.2 100 +24 +24 комфорт 1023.1 1012.5
06 14.07 штиль 0 н/о н/о +20.1 +20.1 100 +24 +24 комфорт 1023.5 1012.9 +19.8
07 14.07 З 3-6
{6}
н/о н/о +19.8 +19.8 100 +23 +23 комфорт 1023.5 1012.9
08 14.07 штиль 0
{5}
н/о н/о +19.9 +19.9 100 +23 +23 комфорт 1023.8 1013.1
09 14.07 штиль 0 н/о н/о +21.6 +19.8 89 +27 +27 душно 1024.2 1013.6
10 14.07 штиль 0 н/о н/о +21.2 +20.4 95 +26 +26 душно 1024.6 1014.0
11 14.07
{5}
н/о н/о +22.6 +16.0 66 1025.0 1014.4
12 14.07 С 1
{5}
н/о н/о +23.9 +13.7 53 +26 +26 жарко 1025.2 1014.7
13 14.07 С 1-7
{7}
н/о н/о +24.4 +14.7 55 +27 +27 жарко 1025.2 1014.7
14 14.07
{7}
н/о н/о +23.9 +20.3 80 1024.9 1014.4
15 14.07 С 1
{6}
н/о н/о +23.0 +18.5 76 +29 +29 очень
душно
1024.9 1014.3
16 14.07 СВ 2
{5}
н/о н/о +23.2 +18.2 73 +29 +29 душно 1024.8 1014.3
17 14.07 штиль 0
{5}
н/о н/о +23.0 +16.6 67 +28 +28 душно 1025.1 1014.5
18 14.07 В 3-5
{6}
н/о н/о +23.4 +18.8 75 +30 +30 очень
душно
1025.1 1014.6 +25.3
19 14.07
{5}
н/о н/о +22.4 +17.6 74 1025.1 1014.6
20 14.07 штиль 0 н/о н/о +21.8 +17.1 75 +26 +26 душно 1025.2 1014.7
21 14.07 штиль 0 н/о н/о +21.3 +17.1 77 +25 +25 комфорт 1025.4 1014.8
22 14.07 штиль 0 н/о н/о +20.3 +16.8 80 +23 +23 комфорт 1025.9 1015.2
23 14.07 штиль 0 н/о н/о +20.1 +17.3 84 +23 +23 комфорт 1026.2 1015.6
00 15.07 штиль 0 н/о н/о +19.5 +16.9 85 +21 +21 комфорт 1026.3 1015.6
01 15.07 штиль 0 н/о н/о +19.2 +17.4 89 +21 +21 комфорт 1026.1 1015.4
02 15.07 штиль 0 н/о н/о +18.9 +18.1 95 +20 +20 1025.8 1015.2
03 15.07 штиль 0 н/о н/о +19.3 +18.2 93 +21 +21 комфорт 1025.4 1014.7
04 15.07 штиль 0 н/о н/о +18.6 +18.6 100 +20 +20 1025.4 1014.7
05 15.07 штиль 0 н/о н/о +18.6 +18.6 100 +20 +20 1025.3 1014.6
06 15.07 З 2 н/о н/о +18.5 +18.5 100 +20 +20 1025.6 1014.9 +18.1
07 15.07 штиль 0 н/о н/о +18.4 +18.4 100 +19 +19 1025.6 1014.9
08 15.07 штиль 0 н/о н/о +19.5 +19.3 99 +22 +22 комфорт 1025.9 1015.2
09 15.07 штиль 0 2000 м 6/6 1000 м
[Sc diur, vesp Ac cuf]
+19.2 +16.0 82 +21 +24 комфорт 1026.0 1015.4
10 15.07 штиль 0 н/о н/о +21.9 +17.2 75 +26 +26 душно 1026.2 1015.7
11 15.07 штиль 0 н/о н/о +22.0 +17.5 76 +27 +27 душно 1026.4 1015.8
12 15.07 С 1
{5}
2000 м 9/9 450 м
[Cu Sc]
+23.0 +15.4 62 +27 +29 душно 1026.8 1016.2
13 15.07 штиль 0
{5}
н/о н/о +23.4 +16.0 63 +28 +28 душно 1026.9 1016.4
14 15.07 штиль 0 н/о н/о +21.9 +16.4 71 +26 +26 душно 1027.0 1016.4
15 15.07 штиль 0 2000 м 9/9 300 м
[St Ac lent]
+22.7 +16.9 70 +27 +30 душно 1026.8 1016.2
16 15.07 СВ 2
{5}
н/о н/о +21.9 +17.0 74 +26 +26 душно 1026.7 1016.1
17 15.07 С 1
{5}
н/о н/о +21.5 +16.0 71 +25 +25 комфорт 1026.7 1016.1
18 15.07 штиль 0 н/о н/о +23.1 +17.4 70 +28 +28 душно 1026.5 1016.0 +24.2
19 15.07 штиль 0 н/о н/о +21.2 +16.4 74 +25 +25 комфорт 1026.7 1016.1
20 15.07 штиль 0 н/о н/о +21.1 +16.5 75 +25 +25 комфорт 1026.9 1016.3
21 15.07 штиль 0 н/о н/о +20.9 +15.9 73 +24 +24 комфорт 1027.2 1016.6
22 15.07 штиль 0 н/о н/о +19.7 +15.7 78 +22 +22 комфорт 1027.6 1016.9
23 15.07 штиль 0 н/о н/о +19.3 +15.6 79 +21 +21 комфорт 1027.9 1017.2
00 16.07 штиль 0 н/о н/о +19.4 +15.6 79 +21 +21 комфорт 1027.9 1017.3
01 16.07 штиль 0 н/о н/о +19.2 +15.9 81 +21 +21 комфорт 1027.7 1017.0
02 16.07 штиль 0 н/о н/о +18.8 +16.4 86 +20 +20 1027.5 1016.8
03 16.07 штиль 0 н/о н/о +18.3 +15.5 84 +19 +19 1027.1 1016.4
04 16.07 штиль 0 н/о н/о +18.4 +15.6 84 +19 +19 1026.9 1016.2
05 16.07 штиль 0 н/о н/о +17.7 +15.8 89 +18 +18 1026.8 1016.1
06 16.07 штиль 0 н/о н/о +18.1 +13.6 75 +18 +18 1027.0 1016.3 +17.6
07 16.07 штиль 0 н/о н/о +18.1 +12.2 68 +18 +18 1027.2 1016.5
08 16.07 штиль 0 н/о н/о +20.4 +16.9 80 +23 +23 комфорт 1027.3 1016.7
09 16.07 штиль 0 2000 м 1/0 1000 м
[Cs]
+21.4 +17.8 80 +26 +31 душно 1027.4 1016.8
10 16.07 С 1 н/о н/о +21.8 +18.0 79 +26 +26 душно 1027.5 1016.9
11 16.07 СВ 1 н/о н/о +22.0 +18.4 80 +27 +27 душно 1027.7 1017.2
12 16.07 С 1 2000 м 1/0
[Cs]
+23.2 +18.3 74 +29 +48 душно 1028.1 1017.5
13 16.07 н/о н/о +22.2 +18.2 78 1028.2 1017.6
14 16.07 С 2
{5}
н/о н/о +22.6 +18.6 78 +28 +28 душно 1028.1 1017.5
15 16.07 нст 2
{5}
2000 м 3/0 300 м
[Ac cast]
+22.8 +18.8 78 1027.8 1017.2
16 16.07 н/о н/о +23.0 +19.9 83 1027.8 1017.2
17 16.07 н/о н/о +22.6 +19.5 83 1027.7 1017.1
18 16.07 С 2 н/о н/о +22.5 +18.8 80 +28 +28 душно 1027.7 1017.1 +23.1
19 16.07 н/о н/о +21.9 +18.6 82 1027.7 1017.1
20 16.07 штиль 0 н/о н/о +21.4 +18.2 82 +26 +26 душно 1028.0 1017.4
21 16.07 штиль 0 н/о н/о +20.7 +19.6 93 +25 +25 комфорт 1028.2 1017.6
22 16.07 штиль 0 н/о н/о +20.4 +20.4 100 +24 +24 комфорт 1028.3 1017.7
23 16.07 штиль 0 н/о н/о +20.4 +19.7 96 +24 +24 комфорт 1028.5 1017.8
00 17.07 штиль 0 н/о н/о +20.2 +20.1 99 +24 +24 комфорт 1028.4 1017.7
01 17.07 штиль 0 н/о н/о +19.9 +19.9 100 +23 +23 комфорт 1028.5 1017.8
02 17.07 штиль 0 н/о н/о +19.8 +19.8 100 +23 +23 комфорт 1028.3 1017.7
03 17.07 штиль 0 н/о н/о +19.8 +19.8 100 +23 +23 комфорт 1028.0 1017.3
04 17.07 штиль 0 н/о н/о +19.7 +19.7 100 +23 +23 комфорт 1027.7 1017.1
05 17.07 штиль 0 н/о н/о +19.4 +19.4 100 +22 +22 комфорт 1027.6 1016.9
06 17.07 штиль 0 н/о н/о +19.2 +19.2 100 +21 +21 комфорт 1027.5 1016.8 +19.1
07 17.07 штиль 0 н/о н/о +19.3 +19.3 100 +21 +21 комфорт 1027.9 1017.2
08 17.07 штиль 0 н/о н/о +20.6 +20.6 100 +25 +25 комфорт 1027.9 1017.3
09 17.07 штиль 0 2000 м 1/0 1000 м
[Cs]
+20.2 +17.9 87 +23 +29 комфорт 1028.0 1017.4
10 17.07 штиль 0 н/о н/о +22.0 +20.3 90 +28 +28 душно 1028.2 1017.6
11 17.07 С 1 н/о н/о +22.5 +20.3 87 +29 +29 очень
душно
1028.4 1017.8
12 17.07 штиль 0 2000 м 1/0
[Cs]
+23.0 +18.4 75 +29 +50 очень
душно
1028.7 1018.1
13 17.07 ЮВ 4 н/о н/о +23.5 +22.0 91 +30 +30 очень
душно
1028.7 1018.1
14 17.07 ЮВ 4
{6}
н/о н/о +23.6 +20.2 81 +29 +29 душно 1028.5 1018.0
15 17.07 ЮВ 4
{6}
2000 м 5/4 300 м
[Sc diur, vesp Ac lent]
+24.3 +18.3 69 +29 +38 душно 1028.3 1017.8
16 17.07 ЮВ 3-5
{6}
н/о н/о +23.9 +21.8 88 +31 +31 очень
душно
1028.2 1017.6
17 17.07 ЮВ 3-5
{6}
н/о н/о +23.5 +22.3 93 +31 +31 очень
душно
1028.1 1017.6
18 17.07 ЮВ 4
{6}
н/о н/о +22.8 +22.3 97 +31 +31 очень
душно
1027.7 1017.1 +24.4
19 17.07 С 1
{5}
н/о н/о +23.6 +20.2 81 +29 +29 душно 1027.4 1016.9
20 17.07 штиль 0 н/о н/о +22.1 +22.1 100 +29 +29 очень
душно
1027.7 1017.1
21 17.07 штиль 0 н/о н/о +21.6 +21.6 100 +28 +28 очень
душно
1027.7 1017.1
22 17.07 штиль 0 н/о н/о +21.6 +21.6 100 +28 +28 очень
душно
1027.9 1017.3
23 17.07 штиль 0 н/о н/о +21.4 +21.4 100 +27 +27 душно 1028.1 1017.4
00 18.07 штиль 0 н/о н/о +21.5 +19 +19 1027.7 1017.1
01 18.07 штиль 0 н/о н/о +21.5 -25.5 3 +19 +19 1027.5 1016.9
02 18.07 штиль 0 н/о н/о +21.2 +19 +19 1027.3 1016.7
03 18.07 штиль 0
{5}
н/о н/о +21.2 -25.8 3 +19 +19 1026.6 1016.0
04 18.07 штиль 0 н/о н/о +21.3 -25.7 3 +19 +19 1026.2 1015.6
05 18.07 штиль 0 н/о н/о +21.4 +19 +19 1026.1 1015.5
06 18.07 штиль 0 н/о н/о +21.2 +19 +19 1026.0 1015.4 +21.0
07 18.07 штиль 0 н/о н/о +21.2 -25.8 3 +19 +19 1026.0 1015.4
08 18.07 штиль 0 н/о н/о +21.3 +19 +19 1026.0 1015.4
09 18.07 штиль 0 н/о н/о +21.5 +19 +19 1026.1 1015.5
10 18.07
{5}
н/о н/о +22.0 -25.2 3 1026.0 1015.4
11 18.07 С 3
{5}
н/о н/о +22.2 -25.0 3 +19 +19 1026.0 1015.4
12 18.07 ЮВ 3-5
{5}
н/о н/о +23.3 +19 +19 1026.0 1015.5
13 18.07 С 3
{5}
н/о н/о +23.5 +20 +20 1025.9 1015.3
14 18.07 ЮВ 4
{6}
н/о н/о +24.2 +24.2 100 +33 +33 очень
душно
1025.5 1015.0
15 18.07 ЮВ 4-6
{6}
н/о н/о +24.2 +24.2 100 +33 +33 очень
душно
1025.2 1014.7
16 18.07 Ю 5-9
{9}
н/о н/о +24.2 +24.2 100 +33 +33 очень
душно
1024.9 1014.5
17 18.07 Ю 5
{9}
н/о н/о +23.8 -24.0 3 +20 +20 1024.7 1014.2
18 18.07 Ю 4-7
{7}
н/о н/о +23.5 +20 +20 1024.2 1013.7 +25.0
19 18.07 -7
{7}
н/о н/о +23.0 1024.0 1013.5
20 18.07 штиль 0
{7}
н/о н/о +22.3 +19 +19 1023.9 1013.4
21 18.07 штиль 0 н/о н/о +22.0 -25.2 3 +19 +19 1024.3 1013.7
22 18.07
{6}
н/о н/о +22.3 -25.0 3 1024.5 1014.0
23 18.07
{5}
н/о н/о +22.1 1024.9 1014.3
00 19.07 С 2
{5}
н/о н/о +21.9 -25.3 3 +19 +19 1024.6 1014.0
01 19.07 штиль 0 н/о н/о +21.6 -25.5 3 +19 +19 1024.2 1013.6
02 19.07 штиль 0 н/о н/о +21.1 +19 +19 1023.9 1013.3
03 19.07 штиль 0 н/о н/о +21.4 -25.6 3 +19 +19 1023.7 1013.1
04 19.07 штиль 0 н/о н/о +21.4 -25.6 3 +19 +19 1023.4 1012.9
05 19.07 штиль 0 н/о н/о +20.7 +19 +19 1023.2 1012.6

 

Местоположение метеостанции Ангра-ду-Эроижму (Португалия): широта 38.67 долгота -27.21 высота над уровнем моря 76 м.

В архиве по умолчанию представлена погода в Ангра-ду-Эроижму за последнюю неделю. Архивные данные за месяц целиком и за предыдущие месяцы, начиная с января 2011 года, Вы можете получить, выбрав интересующий диапазон дат из раскрывающегося списка и нажав кнопку "Ввод!".


*Определитесь, кто Вы:
робот инопланетянин человек

Внимание! Время в таблицах - всемирное. Для получения местного времени необходимо прибавить поправку, которая равна 0 ч.

Смотрите также архив погоды в соседних городах и на ближайших метеорологических станциях:

Погода в Аэропорту Лажеша (Португалия) (15 км)
Погода в Сан-Жоржи (Португалия) (83 км)
Погода на Острове Грасьоса (Португалия) (84 км)
Погода в Пико (Португалия) (108 км)
Погода в Орте (Португалия) (125 км)
Погода в Каштелу-Бранку (Португалия) (131 км)
Погода в Понта-Делгаде (Португалия) (168 км)
Погода в Санта-Марии (Португалия) (261 км)
Погода на Флошише (Португалия) (349 км)
Погода в Фуншале (Португалия) (1148 км)

Пояснения к столбцам:

Ветер - указаны скорость ветра в м/с - средняя за 10 мин, порывы в срок и между сроками (в фигурных скобках) и направление, откуда дует ветер: С - северный, СВ - северо-восточный, В - восточный, ЮВ - юго-восточный, Ю - южный, ЮЗ - юго-западный, З - западный, СЗ - северо-западный.
Видимость - горизонтальная дальность видимости в метрах или километрах. При видимости от 1 до 10 км при отсутствии осадков обычно наблюдается дымка, при ухудшении видимости до 1 км и менее - туман. В сухую погоду видимость может ухудшаться дымом, пылью или мглою.
Явления - указаны атмосферные явления, наблюдавшиеся в срок или в последний час перед сроком; фигурными скобками обозначены явления, наблюдавшиеся между сроками (за 1-3 часа до срока); квадратными скобками обозначены град или гололедные отложения с указанием их диаметра в мм.
Облачность - указаны через наклонную черту общая и нижняя облачность в баллах и высота нижней границы облаков в метрах; квадратными скобками обозначены формы облаков: Ci - перистые, Cs - перисто-слоистые, Cc - перисто-кучевые, Ac - высококучевые, As - высокослоистые, Sc - слоисто-кучевые, Ns - слоисто-дождевые, Cu - кучевые, Cb - кучево-дождевые. Подробнее классификацию облаков см. в Атласе облаков (PDF).
T - Температура воздуха - температура, измеренная на высоте 2 м над землей.
Td - Температура точки росы - температура, при понижении до которой содержащийся в воздухе водяной пар достигнет насыщения.
f - Относительная влажность воздуха - влажноcть воздуха, измеренная на высоте 2 м над землей.
Te - Эффективная температура - температура, которую ощущает одетый по сезону человек в тени. Характеристика душности погоды. При расчете учитывается влияние влажности воздуха и скорости ветра на теплоощущения человека.
Tes - Эффективная температура на солнце - температура, которую ощущает человек, с поправкой на солнечный нагрев. Характеристика знойности погоды. Зависит от высоты солнца над горизонтом, облачности и скорости ветра. Ночью, в пасмурную погоду, а также при ветре 12 м/с и более поправка равна нулю.
P - Атмосферное давление - приведенное к уровню моря атмосферное давление.
Po - Атмосферное давление - измеренное на уровне метеостанции атмосферное давление.
Tmin - Минимальная температура - минимум температуры воздуха на высоте 2 м над землей.
Tmax - Максимальная температура - максимум температуры воздуха на высоте 2 м над землей.
R - Количество осадков - Количество выпавших осадков за период времени, мм. При наведении курсора мыши на число - период времени, за который выпало указанное количество осадков.
R24 - Количество осадков - Количество выпавших осадков за 24 часа, мм.
S - Снежный покров - Высота снежного покрова, см. При наведении курсора мыши на число - состояние снежного покрова и степень покрытия местности в баллах.